Location: American Medical Response
(33.3472°N, 96.5511°W)
Time: 08:52:12
(UTC+00:00)

Cosmos 44 - Visible Passes

Search period start: 26 June 2022 00:00
Search period end: 06 July 2022 00:00
Orbit: 594 x 767 km, 65.1° (Epoch: 25 June)

Date Brightness Start Highest point End Pass type
(mag) Time Alt. Az. Time Alt. Az. Time Alt. Az.
26 Jun 3.4 08:27:54 67° ENE 08:27:54 67° ENE 08:32:01 10° NNE visible
26 Jun 5.4 10:07:21 10° WNW 10:09:01 12° NW 10:10:40 10° NNW visible
27 Jun 5.5 07:25:36 17° ENE 07:25:36 17° ENE 07:27:08 10° ENE visible
27 Jun 4.2 09:04:00 31° WNW 09:04:31 32° WNW 09:08:38 10° N visible
28 Jun 4.0 08:01:39 48° NE 08:01:39 48° NE 08:04:58 10° NNE visible
28 Jun 5.6 09:40:57 10° WNW 09:42:01 11° NW 09:43:03 10° NW visible
29 Jun 5.7 06:59:16 15° ENE 06:59:16 15° ENE 07:00:13 10° ENE visible
29 Jun 4.5 08:37:40 29° NW 08:37:40 29° NW 08:41:29 10° N visible
30 Jun 4.6 07:35:13 36° NNE 07:35:13 36° NNE 07:37:54 10° NNE visible
01 Jul 5.8 06:32:45 13° ENE 06:32:45 13° ENE 06:33:15 10° NE visible
01 Jul 4.8 08:11:08 26° NW 08:11:08 26° NW 08:14:20 10° N visible
02 Jul 5.0 07:08:37 29° NNE 07:08:37 29° NNE 07:10:49 10° NNE visible
03 Jul 5.9 06:06:04 11° NE 06:06:04 11° NE 06:06:17 10° NE visible
03 Jul 5.1 07:44:27 23° NNW 07:44:27 23° NNW 07:47:09 10° N visible
04 Jul 5.2 06:41:50 25° NNE 06:41:50 25° NNE 06:43:45 10° NNE visible
05 Jul 5.9 05:39:11 11° NE 05:39:11 11° NE 05:39:18 10° NE visible
05 Jul 5.3 07:17:34 20° NNW 07:17:34 20° NNW 07:19:58 10° N visible
